Location: Zagreb
(45.8000°N, 16.0000°E)
Time: 20:23:33
(UTC+01:00)

deb Explorer IX - Pass Details

Date: 02 October 2020
Orbit: 537 x 1106 km, 38.8° (Epoch: 30 October)

Event Time Altitude Azimuth Distance (km) Brightness Sun altitude
Rises 15:34:31 0° 204° (SSW) 3,448 ? 27.7°
Reaches altitude 10° 15:38:40 10° 178° (S) 2,366 ? 27.2°
Maximum altitude 15:41:04 13° 152° (SSE) 2,083 ? 26.9°
Drops below altitude 10° 15:43:20 10° 126° (SE) 2,200 ? 26.6°
Sets 15:46:53 0° 98° (E) 2,993 ? 26.1°
